Regional Weather Roundup
Issued by NWS Columbia, SC

Current Version | Previous Version | Text Only | Print | Product List | Glossary On
Versions: 1 2 3 4 5 6 7 8 9 10 11 12 13 14 15 16 17 18 19 20 21 22 23 24 25 26 27 28 29 30 31 32 33 34 35 36 37 38 39 40 41 42 43 44 45 46 47 48 49 50
000
ASUS42 KCAE 250110
RWRCAE
REGIONAL WEATHER ROUNDUP
NATIONAL WEATHER SERVICE COLUMBIA SC
800 PM EST FRI FEB 24 2017

NOTE: "FAIR" INDICATES FEW OR NO CLOUDS BELOW 12,000 FEET WITH NO
SIGNIFICANT WEATHER AND/OR OBSTRUCTIONS TO VISIBILITY.

NOT ALL STATIONS ARE QUALITY CONTROLLED BY THE NATIONAL
WEATHER SERVICE. USE DATA WITH CAUTION...ESPECIALLY
DEWPOINT OBSERVATIONS.

SCZ001>056-GAZ040-063>065-077-250200-
...UPSTATE SOUTH CAROLINA...

CITY           SKY/WX    TMP DP  RH WIND       PRES   REMARKS
ANDERSON       CLEAR     67  52  58 SE3       29.81S
LIBERTY        PTCLDY    59  53  80 SE3       29.81S
SPARTANBURG    CLEAR     63  50  63 CALM      29.81S
CLEMSON        MOCLDY    70  53  54 CALM      29.82S
GREENVILLE     CLEAR     67  52  58 CALM      29.82F
GREENWOOD      CLEAR     63  52  67 CALM      29.82F
GREER          MOCLDY    64  52  64 S3        29.80F
ROCK HILL      CLEAR     63  53  70 CALM      29.82F
CHESTER        CLEAR     63  50  63 CALM      29.83S
LAURENS        CLEAR     64  54  68 CALM      29.81S


...CENTRAL SOUTH CAROLINA...

CITY           SKY/WX    TMP DP  RH WIND       PRES   REMARKS
COLUMBIA APT   CLEAR     72  53  51 S3        29.81S
COLUMBIA OWENS CLEAR     67  54  63 CALM      29.82S
MCENTIRE ANGB  CLEAR     63  55  76 CALM      29.82S
ORANGEBURG     CLEAR     63  57  81 E3        29.82S
SUMTER SHAW    CLEAR     66  56  70 CALM      29.80S
AIKEN          FAIR      63  54  72 SE3       29.85S
BARNWELL       FAIR      66  59  77 CALM      29.82S
MANNING        FAIR      66  57  72 MISG      29.83S
CAMDEN         FAIR      66  55  68 CALM      29.82F
LANCASTER      CLEAR     66  54  63 MISG      29.82S
WINNSBORO      CLEAR     68  54  60 SE6       29.81F


...EASTERN AND COASTAL SOUTH CAROLINA...

CITY           SKY/WX    TMP DP  RH WIND       PRES   REMARKS
N MYRTLE BCH   CLEAR     64  60  87 CALM      29.85S
CONWAY         FAIR      61  59  94 CALM      29.85S
MARION         FAIR      66  57  72 SE6       29.84S
HARTSVILLE     FAIR      64  54  68 CALM      29.82S
FLORENCE       CLEAR     66  58  75 SE7       29.84R
DARLINGTON     CLEAR     63  57  81 CALM      29.83S
CHARLESTON APT CLEAR     65  58  78 SE8       29.84S
MOUNT PLEASANT FAIR      63  61  94 CALM      29.85S
WALTERBORO     CLEAR     66  59  77 S6        29.85S
BEAUFORT       CLEAR     66  63  90 SE7       29.85S


...EASTERN GEORGIA...

CITY           SKY/WX    TMP DP  RH WIND       PRES   REMARKS
AUGUSTA BUSH F CLEAR     65  56  72 S5        29.80S
AUGUSTA DANIEL CLEAR     73  51  46 CALM      29.81S
THOMSON        CLEAR     68  58  69 CALM      29.85S
WASHINGTON     FAIR      68  55  64 SE5       29.80F
CLAXTON        FAIR     N/A N/A N/A E5        29.83S
SYLVANIA       CLEAR    N/A N/A N/A S3        29.83F
STATESBORO     CLEAR     69  62  77 S6        29.82F
SAVANNAH       CLEAR     66  60  81 SE6       29.85S


...SOUTHERN NORTH CAROLINA...

CITY           SKY/WX    TMP DP  RH WIND       PRES   REMARKS
CHARLOTTE      PTCLDY    64  50  60 S7        29.82S
MONROE         CLEAR     62  51  67 CALM      29.81F
WADESBORO      CLEAR     61  54  78 CALM      29.82S
ROCKINGHAM     CLEAR     68  56  63 SE3       29.83S
RUTHERFORDTON  CLEAR     65  52  63 S6        29.81F
ASHEVILLE      CLEAR     60  49  66 S7        29.84R

$$



USA.gov is the U.S. government's official web portal to all federal, state and local government web resources and services.